User: anonymous   Login
Location: Big Prairie
(40.6673°N, 82.0952°W)
Time: 05:24:43
(UTC+00:00)
Language:

ATLAS CENTAUR R/B - Orbit

View from above orbital plane
View from above orbital plane
View from above satellite
View from above satellite

Ground track
Ground track

The orbit data is extracted from the following two-line orbital elements,

1 28385U 04034B   22148.74510910  .00080664  14113-5  80715-3 0  9994
2 28385  57.2601 329.8008 2613522 255.7392  74.2012 10.29516517103257
Epoch (UTC): 28 May 2022 17:52:57
Eccentricity: 0.2613522
inclination: 57.2601°
perigee height: 215 km
apogee height: 4880 km
right ascension of ascending node: 329.8008°
argument of perigee: 255.7392°
revolutions per day: 10.29516517
mean anomaly at epoch: 74.2012°
orbit number at epoch: 10325

The dashed part of the orbit path shows where the satellite is in the earth's shadow,  

DLR